STARLINK-3872, 52453

Orbit data source: Space-Track

STARLINK-3872, 52453 is a payload satellite owned by SpaceX/Seattle (US) in LEO that was launched on Fri, 06 May 2022 UTC via an FALCON 9 launch vehicle from the Air Force Eastern Test Range (AFETR). Payload-class satellites include a variety of spacecraft equipped with specific instruments for various scientific and technological missions. These include communications satellites like Starlink; space stations such as the ISS; scientific satellites like the Hubble; Earth observation satellites from companies like Planet Labs, Umbra, and HawkEye 360; GPS; miniature CubeSats for education and research; and military/defense satellites.

Loading next visibility...
Identifier
52453, 2022-049C
Orbit
LEO
Country
Flag of USUS
Related business
Manufacturer
SpaceX/Seattle
Mission
Operational Commercial Communications
Bus & Motor
STARLINK, Unknown motor
Mass
297 kg wet, ~220 kg dry
Launch date (UTC)
2022-05-06 (4 years ago)
Launch vehicle
FALCON 9
Launch site
Air Force Eastern Test Range (AFETR)
Object type
Payload
Rocket body
Debris
Shape & HBR
Box + 1 Pan, 10.1 m
Radar Cross Section
13.562 m², Large (>1 m²)

Expand to show TLE details & history
Last TLE update: 7 hours ago

TLE from 7 hours ago
0 STARLINK-3872
1 52453U 22049C   26220.12937300  .00000108  00000-0  24888-4 0  9996
2 52453  53.1605 108.8754 0001449  90.4523 269.6634 15.08828981234976
Epoch: 2026-08-08T03:06Z
TLE epoch observation values (Epoch: 2026-08-08T03:06:17.827Z)
Latitude
-0.00004°
Longitude
105.65594°
Altitude
540.675 km
Speed
7.593 km/s
True Right ascension
07h 15m 30s
True Declination
0° 00' 00"
Sunlit
Object was in daylight at epoch
Visualization orbit readout
Latitude
Unknown
Longitude
Unknown
Altitude
Unknown
Speed
Unknown
Apparent Right ascension
Unknown
Apparent Declination
Unknown
Sunlit
N/A
Visualization observer readout
Local Sidereal Time
00:26:01
Azimuth
Unknown
Elevation
Unknown
Doppler factor
Unknown
Orbital elements
Apogee altitude
541.034 km
Perigee altitude
539.029 km
Semi-major axis
6,918.168 km
Eccentricity
0.00014
Inclination
53.1605°
RAAN
108.8754°
Arg. of periapsis
90.4523°
True anomaly
269.6468°
Mean anomaly
269.6634°
Eccentric anomaly
269.6551°
Mean motion
3.77187 °/min
Orbital period
95.44 mins
BSTAR
0.000024888
Loading maneuver chart data...
Computing Atmospheric mass density...
Loading historical data...
Loading historical data...
Loading historical data...
Loading historical data...
Loading historical data...
Loading historical data...
Loading historical data...

Documentation

Showing up to 5 results
|